Theta_e
315 316 317 317 317 317 318 317 317 317 317 316 316 315 314 313 313 317 316 309 309 312 312 313 313 313 314 313 314 313 313 313 313 313 313 313 313 313 313 314 313 311 310 309 307 306 304 303 301 300 299 299 299 298 297 297 297 297 296 296 296 295 295 294 294 294 293 293 293 293 293 293 293 293 292 291 291 291 291 290 289 288 289 288 288 288
314 315 316 317 317 317 317 317 317 317 316 316 315 313 314 314 315 318 315 308 308 310 312 313 313 313 313 313 313 313 313 313 312 313 313 313 314 314 314 314 314 312 310 309 307 306 304 302 301 299 299 298 298 297 297 297 297 296 296 296 296 295 294 294 294 294 294 294 294 294 294 294 293 292 292 292 291 290 290 289 288 288 288 288 288 288
315 316 316 316 316 316 316 315 315 315 315 315 315 314 314 315 317 317 313 308 308 309 312 313 312 313 313 313 313 313 313 313 313 314 314 314 314 315 315 315 315 312 309 308 306 305 304 302 300 299 298 298 298 297 296 296 296 296 296 296 296 295 294 294 294 293 294 294 294 294 294 294 293 292 291 292 292 290 289 288 288 288 288 288 288 287
316 316 316 316 316 316 315 314 314 314 314 315 315 315 315 316 318 316 312 309 309 309 311 312 312 312 313 313 313 313 313 313 314 314 315 316 315 315 316 316 315 312 310 309 306 305 303 302 301 299 298 298 297 297 296 296 296 296 296 296 296 295 294 294 293 293 294 294 293 293 293 293 292 292 291 290 290 289 288 288 288 288 287 287 287 287
316 316 314 314 315 315 315 314 313 313 314 315 317 316 315 317 317 316 314 312 311 311 310 311 312 313 314 315 315 314 314 314 313 313 313 314 315 315 316 316 315 312 311 310 307 305 303 302 301 299 298 297 297 297 296 296 296 296 296 295 295 295 294 294 293 293 293 293 292 291 291 291 290 290 290 290 290 289 289 288 288 288 288 287 287 287
315 314 314 314 315 315 316 315 315 315 314 315 317 318 317 317 317 317 317 315 315 314 311 311 314 313 314 315 316 315 314 313 313 312 313 313 313 314 316 315 314 313 312 311 308 305 303 302 301 300 299 297 297 296 296 295 295 295 295 295 295 295 294 294 293 293 292 292 291 290 290 290 291 291 291 291 291 291 290 290 289 289 288 287 287 287
315 312 312 315 316 316 316 315 315 316 314 314 318 319 317 317 317 317 317 316 315 315 312 312 314 315 314 313 315 315 314 313 314 315 317 315 314 314 316 316 313 312 312 311 309 306 304 302 301 300 299 298 297 296 296 295 295 295 295 295 295 294 294 294 293 292 291 291 291 291 291 292 292 292 292 292 292 292 291 290 290 289 288 287 287 286
316 313 312 315 316 316 316 315 316 317 315 315 317 317 315 316 317 317 317 315 314 315 314 313 314 315 315 314 315 314 313 314 314 314 315 316 315 314 316 317 314 312 312 311 309 306 304 303 301 301 299 298 297 296 296 295 295 295 295 295 295 294 294 293 293 292 291 291 291 291 292 292 293 293 293 293 292 291 290 289 289 288 287 287 287 286
317 316 315 315 314 316 316 316 317 317 316 315 313 313 313 314 315 315 315 314 314 315 315 315 314 315 315 315 315 314 313 312 312 312 313 313 315 315 316 317 314 313 313 310 309 307 305 303 302 301 300 298 297 296 296 295 295 295 295 295 295 294 294 293 292 291 291 291 291 291 292 292 293 293 293 292 291 290 289 288 288 288 287 287 286 285
315 311 312 314 315 317 314 312 314 317 316 313 311 312 312 312 312 313 313 313 313 315 316 316 315 315 316 314 314 314 312 312 313 313 313 314 315 317 319 318 314 312 312 310 309 308 306 304 302 301 300 298 297 296 296 295 295 295 295 295 294 294 294 293 292 291 291 290 291 291 291 292 292 292 291 291 290 290 289 288 288 288 287 287 286 286
310 306 308 313 314 313 310 307 308 312 312 310 312 313 313 312 311 311 312 312 314 317 318 317 315 315 316 315 314 314 313 313 314 313 314 315 315 318 321 318 313 312 311 310 309 307 306 305 303 301 300 299 297 296 296 295 295 294 294 294 294 294 293 293 292 291 290 290 290 291 291 291 291 291 291 290 290 289 289 289 288 288 287 287 286 285
312 308 309 312 311 309 309 308 307 307 308 311 313 313 314 314 312 312 312 312 315 318 317 316 317 316 315 314 313 314 314 313 315 314 314 315 315 318 322 318 313 311 310 308 307 306 305 304 303 301 300 299 297 296 296 295 295 295 294 294 294 294 293 293 292 291 290 290 290 290 290 290 291 291 291 290 290 290 289 289 288 288 287 286 286 285
317 315 313 312 309 308 312 312 308 306 308 311 312 312 315 316 315 316 316 315 317 317 314 314 317 318 315 313 313 314 313 313 314 314 314 315 314 317 323 319 313 311 309 307 306 305 304 303 302 301 300 298 297 296 296 295 295 294 294 294 294 293 293 292 291 291 290 290 289 289 290 290 290 290 290 290 290 289 289 288 288 287 287 286 286 285
318 317 315 314 311 309 312 313 313 311 308 310 313 313 316 317 318 320 319 318 318 317 313 311 314 316 313 312 313 313 313 313 313 313 315 316 315 319 324 320 315 311 309 306 305 304 303 302 302 301 300 298 297 296 295 295 295 294 294 294 294 293 293 292 291 291 290 290 289 289 289 289 290 290 290 289 289 289 288 288 287 286 286 285 285 284
318 317 316 316 315 311 311 313 316 315 310 310 312 314 315 316 317 318 317 317 317 315 312 310 312 313 310 311 314 314 313 314 313 314 316 317 318 321 319 316 314 310 307 306 305 303 302 302 301 300 299 298 297 296 295 295 295 294 294 294 293 293 293 292 291 290 290 290 289 289 289 289 289 289 289 288 288 287 287 287 286 285 285 284 284 284
316 318 318 316 313 311 312 314 316 315 313 311 312 314 315 316 315 315 316 315 314 314 314 312 311 311 310 313 315 314 314 314 313 313 315 315 318 319 316 314 312 308 306 305 304 303 302 301 301 300 299 298 297 296 295 294 294 294 294 293 293 293 292 292 291 290 290 290 289 289 289 289 288 288 288 287 287 286 286 286 285 284 284 284 284 283
315 317 318 312 310 309 307 311 314 314 314 313 312 314 315 315 316 316 317 315 312 314 315 314 313 312 312 313 314 313 313 313 313 313 313 314 316 317 316 316 312 308 306 305 303 302 302 301 300 299 298 297 296 295 295 294 294 294 293 293 293 293 292 291 290 290 290 289 289 288 288 288 288 287 287 287 286 286 285 285 284 284 284 283 283 283
315 316 317 312 311 307 302 306 310 310 312 313 312 314 314 313 314 314 316 316 314 316 316 314 314 313 311 313 313 312 312 312 312 312 313 313 315 316 316 315 313 310 308 305 303 302 301 301 300 299 298 297 296 295 294 294 294 293 293 293 292 292 292 291 290 289 289 289 288 288 288 287 287 287 286 286 286 285 285 284 284 283 283 283 283 283
317 317 317 311 310 307 302 306 310 308 308 309 310 311 312 313 314 313 315 315 315 317 315 314 313 312 312 313 312 311 311 311 312 312 312 312 313 315 314 314 314 312 309 306 304 303 301 300 299 298 297 296 295 295 294 293 293 293 292 292 292 292 291 290 290 289 289 288 288 288 287 287 286 286 286 285 285 285 284 284 283 283 283 282 282 281
317 316 317 309 305 307 306 307 311 311 308 306 307 309 310 311 313 313 314 314 313 315 314 314 314 312 313 314 313 312 312 312 312 312 313 312 312 314 314 313 313 312 310 308 306 304 302 300 298 298 296 295 295 294 293 293 293 292 292 292 291 291 291 290 289 289 288 288 287 287 286 286 286 285 285 284 284 284 283 283 283 283 282 282 281 280
316 316 316 309 304 308 309 309 312 313 311 308 307 309 310 310 310 311 313 313 313 314 313 314 315 312 312 314 314 312 312 313 313 313 314 314 313 313 313 312 312 312 311 310 308 306 303 300 298 297 296 295 294 293 293 292 292 292 291 291 291 291 290 290 289 288 288 287 287 286 286 285 285 284 284 284 284 283 282 282 283 283 282 281 280 279
315 315 316 312 309 310 311 312 313 313 314 312 310 310 311 311 311 312 314 314 312 313 314 314 315 313 312 313 313 312 312 312 312 312 314 316 314 313 313 313 312 312 311 310 308 306 305 302 298 296 295 294 293 292 292 291 291 291 291 291 290 290 290 289 288 288 287 287 286 285 285 284 284 284 283 283 282 282 282 282 282 282 281 280 279 278
317 316 315 315 314 314 313 311 311 311 312 312 312 312 312 312 312 314 316 315 312 312 313 314 315 315 313 313 313 312 311 311 311 312 312 314 314 313 313 312 312 312 311 309 308 306 305 303 299 296 294 293 293 292 291 291 291 291 290 290 290 289 289 289 288 287 287 286 285 285 284 284 283 283 282 282 281 281 282 282 281 281 280 279 278 277
317 316 315 314 315 315 313 308 305 306 308 310 311 312 313 313 313 314 314 313 313 313 313 314 315 315 314 315 314 312 312 312 311 311 311 312 313 312 312 312 312 311 310 308 307 306 304 301 298 296 294 293 292 292 291 291 290 290 290 289 289 289 289 288 288 287 286 285 284 284 283 283 282 282 281 281 280 281 281 281 280 280 279 277 277 276
313 314 314 314 314 315 314 310 307 306 307 309 310 311 313 313 314 314 312 310 312 314 314 314 315 314 314 316 315 312 312 312 310 311 311 311 312 311 310 310 310 310 308 307 306 304 302 300 297 295 294 293 292 292 291 290 290 290 289 289 289 288 288 287 287 286 285 284 283 283 282 282 281 281 280 280 280 280 281 280 279 278 277 276 276 275
313 315 313 313 314 315 314 313 313 310 307 307 309 310 312 313 313 313 312 312 313 314 313 314 314 313 312 314 313 312 312 312 311 311 311 310 311 311 310 309 309 308 307 306 306 304 302 299 297 296 294 293 292 291 291 290 290 289 289 289 288 288 287 286 286 285 284 283 283 282 281 281 280 280 279 279 280 280 280 279 278 276 276 276 275 275
316 317 313 312 313 313 313 313 314 313 310 309 310 310 311 313 313 313 313 313 313 313 313 313 314 314 313 312 312 312 312 312 312 312 311 309 308 309 310 310 309 308 306 306 305 304 302 299 297 296 295 293 292 291 291 290 289 289 289 288 288 287 287 285 285 284 283 282 282 281 280 280 280 279 279 279 280 279 279 278 277 276 276 276 275 275
314 314 312 312 313 312 312 312 312 312 312 311 311 311 311 312 314 314 314 312 312 313 313 313 313 314 314 312 312 312 312 312 312 312 312 311 308 307 307 307 308 307 306 306 305 304 302 300 298 297 295 294 292 291 290 290 289 289 288 288 287 287 286 285 284 283 282 282 281 280 280 279 279 279 279 279 279 278 277 277 276 275 276 276 275 276
311 311 312 313 313 312 312 311 311 312 312 312 312 312 312 311 313 314 313 312 313 313 313 313 313 314 313 311 312 312 312 312 312 311 312 311 310 308 307 306 306 306 306 305 305 304 303 301 300 299 297 295 293 291 290 289 289 288 288 287 287 286 285 284 283 282 282 281 281 280 280 279 279 279 278 279 278 277 276 276 275 275 275 276 276 275
311 311 313 313 313 313 313 312 311 311 312 312 312 313 313 312 312 312 312 312 313 313 312 312 313 313 312 311 311 311 311 312 311 311 311 310 310 310 309 307 306 306 307 307 306 306 304 303 302 301 299 296 294 292 290 289 289 288 288 287 286 285 284 283 282 282 281 281 280 280 279 279 278 278 278 278 277 276 276 275 275 275 275 276 276 275
311 311 312 313 313 313 313 312 312 312 312 312 312 313 313 312 312 312 312 312 312 312 312 312 313 312 311 310 310 311 311 311 311 311 310 310 310 310 310 309 308 307 307 307 307 307 306 304 304 302 300 298 295 292 290 290 289 288 287 286 285 284 283 283 282 281 281 280 280 279 279 278 278 277 277 277 276 275 275 275 275 275 275 275 275 275
310 311 311 312 313 314 313 313 313 312 312 313 313 313 312 312 312 312 312 312 312 312 312 313 313 312 311 311 311 311 311 310 310 310 310 310 310 309 309 309 309 309 308 308 308 307 307 305 304 303 302 299 295 292 290 290 289 288 287 286 284 283 282 282 281 281 280 280 279 279 278 277 277 276 276 276 275 275 275 275 275 275 275 275 275 274
309 311 311 312 313 314 313 313 313 313 314 314 313 312 312 312 312 311 312 312 312 312 312 312 312 311 310 311 311 310 310 310 310 310 310 310 309 309 309 309 309 308 308 308 308 308 307 306 304 303 302 300 296 292 291 290 289 288 287 285 284 283 282 281 281 280 280 279 279 278 277 277 276 276 275 275 274 274 275 275 275 275 275 274 274 274
310 310 311 313 314 314 314 314 313 314 315 316 315 313 312 312 312 312 312 311 311 311 311 311 311 311 311 312 311 311 311 311 311 311 311 310 310 310 309 309 309 309 309 309 309 308 308 307 305 303 301 300 297 294 292 290 289 288 286 285 283 282 281 280 280 280 279 278 278 277 277 276 276 275 274 274 274 274 275 275 275 274 274 273 273 272
311 311 311 313 314 314 314 315 316 316 316 315 315 313 311 311 311 312 312 311 311 311 312 311 312 311 311 312 311 311 311 311 311 310 310 310 310 309 309 309 309 309 308 309 308 308 308 308 307 304 301 299 296 294 291 290 288 287 285 284 282 281 280 280 280 279 278 278 277 276 276 275 275 274 273 273 273 274 274 274 274 273 273 273 272 271
312 312 311 312 314 314 315 315 317 318 314 312 312 312 311 311 311 312 313 312 311 311 312 312 311 311 311 312 311 311 311 311 311 310 310 310 310 310 309 309 309 309 308 308 308 308 308 308 307 304 300 297 294 292 290 289 287 286 284 282 282 280 280 280 279 278 277 277 276 275 275 275 274 273 272 272 273 273 273 273 273 273 272 272 270 269
312 312 312 313 314 315 315 315 316 316 314 312 313 312 312 311 311 312 314 313 311 311 311 311 311 311 311 311 311 311 311 311 311 311 310 310 310 310 310 309 309 309 308 308 308 308 307 306 304 301 298 295 292 291 289 288 286 285 282 281 281 280 279 279 278 277 277 276 275 275 274 274 274 273 272 272 272 272 273 273 273 272 271 270 269 267
311 312 313 314 315 315 316 316 316 317 316 315 314 313 311 311 311 312 314 314 313 311 311 311 311 311 311 311 311 311 311 311 311 311 310 310 310 310 310 310 309 309 309 308 308 308 305 302 301 299 296 293 291 290 289 287 285 283 281 280 280 279 278 278 277 277 276 275 274 274 273 273 273 273 272 272 272 272 272 272 272 271 271 270 268 267
312 312 312 313 315 315 316 317 317 317 316 315 314 313 312 312 312 312 315 315 314 311 311 311 311 312 312 312 312 312 312 312 311 311 310 310 310 310 310 310 309 309 308 307 307 307 304 300 297 296 294 292 290 289 287 286 284 282 281 280 279 278 277 277 277 276 275 274 273 273 272 272 272 272 272 271 272 272 272 271 271 270 270 269 267 267
312 311 312 313 314 314 315 316 317 316 316 315 313 312 312 312 312 315 316 316 313 311 312 312 312 312 312 311 312 312 312 312 311 311 310 310 310 310 309 309 309 309 309 308 306 304 301 297 296 295 293 291 290 288 286 285 283 282 280 279 278 277 277 276 276 275 274 273 272 272 271 271 272 272 271 271 272 272 272 271 270 269 269 268 267 267
313 312 312 313 313 313 314 316 316 315 315 315 313 312 312 312 314 315 316 315 312 312 312 311 311 311 311 311 311 311 311 311 310 310 310 310 309 309 309 308 308 307 306 305 303 299 296 294 294 294 293 291 289 287 285 284 283 281 280 278 277 277 277 276 275 274 273 272 271 271 271 271 271 271 271 272 272 272 271 270 269 269 268 267 266 266
313 313 312 313 313 313 313 314 314 315 314 313 312 312 312 314 314 315 314 312 311 312 311 311 312 311 311 311 311 311 310 310 310 310 309 309 309 309 309 307 306 305 302 299 298 296 294 293 293 292 291 289 287 285 284 283 282 281 279 278 277 277 276 275 274 273 272 272 271 270 270 271 271 272 272 272 272 271 270 269 268 268 267 267 266 266
314 313 313 313 313 313 313 313 314 315 315 313 312 312 313 314 314 313 311 311 312 312 311 312 311 310 311 311 310 311 310 309 310 309 309 309 308 308 308 306 305 304 301 299 297 295 293 294 293 290 289 287 285 283 283 282 281 280 278 277 277 276 275 274 273 272 272 271 270 269 270 271 271 271 271 271 270 270 268 268 268 268 267 266 266 266
315 315 314 313 312 313 314 314 313 313 313 312 312 312 312 312 312 312 312 312 312 312 312 312 312 311 312 311 310 310 310 309 310 309 309 309 308 308 308 307 304 302 300 299 297 293 292 294 293 289 286 284 283 282 282 282 281 279 278 277 276 274 273 272 272 271 270 269 269 269 269 269 269 269 269 269 269 269 267 267 267 267 266 266 266 266
313 311 310 310 310 312 313 312 311 311 311 311 311 311 311 310 311 312 311 311 311 311 311 311 311 310 310 309 308 308 308 308 309 308 308 308 308 308 308 307 304 301 299 298 295 291 291 293 292 288 284 282 281 280 281 281 281 279 277 276 274 273 272 271 270 270 269 267 267 268 268 267 267 268 269 269 269 269 268 267 266 265 265 265 266 267
306 304 305 306 308 309 311 311 310 310 310 309 309 308 308 308 308 310 310 309 309 309 308 307 307 307 306 305 305 305 305 305 306 306 306 306 307 307 307 306 304 300 297 297 294 290 288 289 289 287 284 281 279 279 279 280 280 278 276 274 273 272 271 270 269 268 267 266 266 266 266 266 265 266 267 268 268 268 267 267 266 265 265 266 267 267
302 303 303 303 305 307 310 309 308 307 306 305 305 305 307 308 309 311 311 309 309 309 308 307 307 306 306 306 306 306 306 306 306 306 305 306 306 306 306 306 304 301 298 297 294 289 288 288 288 286 285 281 279 278 278 279 279 278 275 273 272 271 270 270 268 267 265 265 265 264 265 265 265 264 264 265 265 265 266 266 266 266 266 267 267 267
302 301 299 298 300 302 302 302 301 301 301 301 302 305 308 310 310 310 310 309 308 308 307 307 308 308 308 308 308 308 308 308 307 306 306 306 307 307 306 306 305 303 299 296 290 287 287 289 287 286 284 281 278 277 277 278 278 276 274 272 270 270 269 268 267 266 265 264 264 264 264 264 264 264 264 264 264 265 265 265 265 266 267 267 267 268
296 295 294 295 296 296 296 296 297 298 299 300 302 306 308 309 307 306 305 305 305 305 305 305 306 308 308 308 308 308 308 308 307 307 306 306 306 306 305 306 305 304 301 295 289 286 287 288 287 286 284 280 277 276 276 277 276 274 272 271 270 270 269 267 266 265 264 263 263 263 263 264 264 264 264 264 264 265 265 266 266 266 267 267 267 267
293 293 293 293 294 294 295 296 296 298 299 299 301 302 303 303 301 300 299 300 300 300 301 301 302 303 303 304 304 305 306 306 306 306 306 305 305 305 304 305 305 305 302 296 289 286 286 286 285 285 282 279 276 275 276 276 274 272 270 270 269 269 268 266 265 264 263 263 263 263 263 263 263 264 264 264 264 265 265 266 266 266 266 267 267 268
293 293 293 294 295 295 295 295 295 296 296 296 296 296 295 296 295 295 295 295 295 296 296 297 297 298 299 300 301 303 305 305 305 305 306 305 305 305 305 304 305 304 302 297 291 288 287 285 283 283 281 277 275 275 275 274 272 270 269 269 269 269 268 267 265 263 263 263 263 263 263 263 263 264 264 264 264 264 264 265 266 266 267 267 267 268
Wind_Speed
3 5 7 9 12 12 12 14 15 17 14 12 11 10 13 13 13 16 7 4 5 5 10 14 16 19 19 18 18 17 17 17 18 18 18 17 15 13 14 14 14 13 9 10 14 18 21 21 21 21 21 22 23 23 24 25 25 24 24 25 23 22 22 20 19 18 17 15 14 13 12 11 11 11 10 9 9 9 9 10 10 8 8 10 10 11
3 6 12 16 17 13 8 8 11 14 14 12 11 11 13 11 13 15 4 5 5 3 9 13 15 19 18 17 17 17 18 18 19 21 20 19 16 13 14 15 13 9 7 9 12 15 18 20 21 22 21 23 24 24 25 26 25 25 24 25 24 23 23 21 20 19 18 16 14 13 13 12 11 12 10 8 9 10 11 11 10 9 10 10 11 11
6 10 18 20 11 5 3 4 8 12 13 11 9 8 10 10 12 11 2 6 4 4 7 11 13 17 17 18 18 19 19 18 18 20 19 17 16 14 13 12 10 8 8 10 11 13 16 19 20 21 20 22 24 24 25 25 25 25 24 24 24 23 23 22 20 20 17 16 15 13 13 13 11 11 12 12 11 11 11 11 10 10 10 10 11 11
8 10 14 12 5 5 8 6 7 10 9 9 8 7 10 9 8 7 2 3 5 7 8 11 12 14 16 17 19 22 21 17 17 17 17 15 14 15 13 9 7 10 9 10 12 12 14 17 19 20 20 21 22 22 24 25 25 26 25 25 24 23 23 22 21 20 17 17 18 17 16 16 13 11 13 14 13 12 11 10 11 11 11 11 11 11
14 8 2 2 4 7 10 7 8 8 7 9 10 10 11 11 11 10 3 3 7 8 4 8 11 11 12 13 14 14 12 12 12 11 13 14 13 13 12 8 8 9 9 10 12 13 13 15 18 20 20 20 22 23 25 26 26 25 25 25 24 23 23 22 23 22 20 21 23 20 17 16 14 12 11 11 11 11 11 11 11 11 11 11 11 12
16 7 4 4 5 6 8 9 9 8 7 9 11 14 16 14 14 13 6 6 8 7 2 3 10 8 6 9 9 5 5 7 7 8 12 13 11 11 10 8 9 9 8 9 11 13 13 14 17 19 20 21 23 24 24 26 26 24 25 26 24 23 23 22 24 26 25 25 24 21 18 15 13 12 11 11 10 10 10 10 10 10 11 11 12 12
8 3 3 7 8 6 8 11 11 9 8 8 5 6 12 13 14 13 8 4 6 7 1 2 8 9 4 6 8 5 6 8 7 8 11 9 8 9 8 7 9 9 8 9 10 12 13 13 15 18 21 23 23 24 23 24 26 25 25 26 25 24 23 24 27 30 29 26 23 21 19 15 13 12 11 11 10 9 9 8 8 9 10 12 13 13
5 5 3 6 7 7 9 10 10 11 9 5 1 3 3 6 10 9 7 6 6 9 5 4 5 12 9 6 10 10 8 8 8 11 14 11 9 11 10 7 9 10 9 9 10 12 13 14 15 18 21 23 23 23 23 24 26 26 25 27 27 25 24 27 30 31 31 28 23 21 18 14 13 12 11 11 10 10 10 9 9 10 10 12 13 13
3 6 6 8 8 7 7 3 3 11 9 2 3 3 2 0 3 3 4 6 7 8 8 7 7 9 11 5 12 14 12 10 12 15 16 15 12 11 10 7 9 9 10 10 11 12 13 14 17 19 20 21 22 24 24 25 26 26 26 27 28 26 25 29 32 32 32 29 25 22 18 15 13 12 11 10 10 11 11 10 10 10 11 12 13 14
3 1 2 7 8 7 4 3 3 6 6 2 4 4 5 3 1 1 4 5 6 9 10 8 10 7 12 3 10 11 10 11 12 13 14 14 13 10 7 7 8 8 8 9 10 11 12 14 17 18 19 20 22 24 24 25 26 27 27 27 29 28 26 29 33 33 33 29 26 23 20 18 15 14 13 11 10 10 10 10 10 11 11 10 10 11
2 3 1 4 6 2 4 5 5 2 2 5 5 3 2 2 2 2 4 2 5 11 10 12 17 11 10 2 9 8 10 13 11 10 11 11 10 8 6 7 8 8 8 8 9 10 11 13 16 17 18 20 21 22 23 24 26 28 28 28 30 29 28 31 34 34 34 32 29 25 22 21 18 15 15 13 12 11 10 10 10 11 10 9 10 10
6 5 3 2 1 3 5 4 3 3 2 4 3 2 2 4 2 3 4 3 6 10 5 12 19 17 11 4 7 8 12 15 11 7 10 9 8 7 6 7 8 8 8 8 8 9 10 11 14 16 18 20 21 22 24 25 27 28 29 29 30 30 29 31 35 35 34 33 32 28 25 23 21 18 17 15 13 12 12 11 11 10 10 10 10 10
6 8 8 3 1 5 6 3 2 2 3 4 5 5 4 4 3 5 5 4 8 8 3 8 11 14 13 9 8 8 9 13 11 6 8 8 7 6 5 7 7 7 7 8 7 7 9 9 11 14 17 20 21 23 25 26 27 28 29 29 30 31 29 31 35 36 35 34 33 31 27 25 22 20 18 16 14 13 12 12 12 12 11 10 10 9
3 3 8 7 2 7 10 8 5 4 7 8 8 7 6 6 5 6 6 6 9 7 3 6 4 6 8 7 14 16 13 13 11 8 8 8 8 5 2 6 6 6 6 7 7 7 8 9 10 12 16 19 20 22 25 26 27 27 28 29 30 30 29 30 34 35 34 33 33 33 30 26 23 21 19 17 15 15 15 14 14 15 14 12 12 11
6 5 9 10 3 10 16 13 5 3 7 10 8 7 7 6 6 7 7 8 7 6 1 4 3 4 3 1 9 17 17 14 10 9 9 9 7 2 3 4 4 5 6 6 7 8 9 10 10 12 16 19 19 22 25 25 26 27 28 30 32 30 30 31 34 35 34 32 33 32 30 27 25 24 23 20 18 18 19 18 17 18 17 16 14 13
7 8 7 7 2 11 14 9 4 4 4 7 6 7 8 6 7 7 7 5 3 7 5 5 4 6 5 1 5 8 12 14 12 11 10 9 8 4 3 4 4 5 6 5 6 8 9 10 10 12 15 17 18 21 24 25 27 29 30 31 32 31 30 32 34 35 33 32 32 32 31 29 27 26 24 22 21 21 22 21 21 19 19 17 15 15
5 5 5 5 1 6 3 2 3 2 2 5 6 7 3 1 3 7 8 1 1 7 8 5 7 8 8 6 8 10 12 15 14 13 12 11 11 7 6 6 6 7 7 6 7 7 9 9 10 13 15 16 18 21 25 28 29 31 31 31 31 30 29 32 34 35 33 32 33 33 32 31 29 28 26 25 24 24 23 23 22 21 19 18 16 15
5 4 3 4 2 2 2 4 1 2 1 4 4 4 1 3 1 4 6 3 4 10 9 9 13 12 9 7 8 14 14 15 15 14 12 12 11 9 9 9 9 9 8 7 7 7 8 9 10 13 16 18 20 24 27 29 29 30 31 33 32 30 32 34 36 36 35 35 34 34 33 32 31 30 29 27 25 25 25 24 22 21 19 17 16 15
2 3 2 2 1 2 2 2 3 2 1 1 2 2 0 2 4 5 6 5 7 9 9 15 20 14 10 6 6 14 15 15 15 13 10 11 11 10 11 11 11 9 8 8 9 8 8 9 10 13 16 18 21 24 26 27 28 28 31 34 32 30 33 36 36 36 36 36 36 35 35 33 32 31 29 28 27 26 26 24 22 20 18 16 15 14
2 3 3 1 2 1 3 4 5 5 4 1 4 3 1 2 3 5 5 5 7 8 9 15 18 13 8 6 9 16 16 15 14 11 10 11 12 11 11 11 11 10 10 10 11 10 10 10 11 14 17 18 20 21 22 24 26 27 29 31 30 28 31 36 36 36 36 36 37 36 35 34 32 31 30 29 28 27 26 25 23 20 18 16 15 15
1 3 4 1 1 3 4 6 9 9 8 5 5 6 6 3 1 2 4 5 6 7 7 9 14 12 4 3 9 12 11 12 12 10 9 9 11 11 10 11 11 10 10 11 11 11 10 9 10 13 15 16 17 19 20 22 23 25 26 28 30 28 30 35 37 38 37 36 36 36 35 34 33 31 30 29 29 28 27 24 22 20 18 16 15 15
3 4 6 4 3 6 7 8 10 10 8 8 9 10 10 8 5 3 7 6 3 5 8 7 13 15 2 7 7 6 4 6 7 8 7 7 10 11 10 12 12 11 11 10 11 11 11 9 8 11 14 15 16 18 20 21 22 24 25 27 29 29 30 35 37 37 37 36 35 36 34 33 33 31 30 30 29 28 26 24 22 20 17 16 16 15
2 2 6 8 7 7 5 3 2 2 1 3 6 8 9 9 9 8 7 5 3 5 8 7 12 16 3 8 5 4 4 3 4 6 8 8 10 11 11 12 12 11 11 11 11 10 9 8 7 9 12 14 16 17 19 21 21 24 26 26 29 29 30 34 36 37 37 35 34 34 34 33 32 31 31 30 29 28 26 23 21 19 18 17 16 15
2 2 5 8 7 6 3 1 2 1 1 4 6 7 8 9 10 9 5 2 3 5 8 8 10 14 5 6 2 4 3 5 6 8 13 12 8 9 12 11 10 11 11 10 10 8 7 6 6 8 10 12 15 17 19 21 21 23 25 26 28 30 29 31 36 37 36 35 34 33 33 32 31 31 31 30 29 28 25 23 21 19 18 17 16 15
2 3 6 6 6 7 6 4 3 2 4 6 8 9 10 11 10 6 2 1 4 12 17 12 8 13 9 1 2 9 7 7 9 11 14 13 8 9 10 9 9 10 10 9 10 8 7 6 6 7 8 9 13 16 18 20 21 22 24 26 28 28 28 31 36 37 36 35 34 32 33 32 32 32 32 31 29 27 25 23 21 19 18 17 16 15
3 4 5 8 10 8 10 11 6 2 4 6 8 12 13 13 13 9 5 5 9 17 20 13 9 14 16 13 15 16 13 11 14 15 12 8 9 9 9 9 9 9 10 11 10 10 9 7 7 8 8 9 12 15 17 19 20 22 23 25 26 27 28 31 36 38 35 34 33 32 32 32 32 33 33 31 29 26 25 23 21 19 18 17 17 16
1 3 8 12 14 11 13 16 10 5 4 6 9 14 14 14 16 13 8 9 14 16 14 14 17 18 19 22 23 23 22 20 20 21 14 7 8 9 8 9 10 9 10 10 10 10 10 8 7 9 10 10 12 15 16 18 20 21 22 24 25 26 28 32 36 37 34 32 32 32 31 32 33 34 33 31 29 26 25 23 21 19 19 18 17 16
2 6 13 17 20 19 21 24 22 19 15 11 11 13 14 16 17 15 15 19 19 12 9 15 22 21 18 20 24 25 26 23 21 23 19 9 9 10 10 11 11 10 9 9 10 11 11 10 9 10 10 10 12 14 16 17 19 20 22 23 24 26 30 34 35 33 30 30 30 29 30 32 33 33 32 31 28 25 24 23 21 20 20 18 17 16
3 8 12 16 20 22 22 24 25 24 21 18 18 17 17 17 17 19 23 23 17 13 14 19 25 23 17 17 23 27 27 26 24 23 20 14 10 10 10 11 11 11 11 12 13 12 13 14 13 12 10 9 11 14 16 17 19 20 21 22 23 25 30 34 32 28 28 27 27 28 30 32 32 32 31 30 27 25 24 23 22 21 19 18 16 15
3 6 11 15 17 18 18 21 24 26 24 23 24 22 17 14 18 24 22 15 15 20 23 24 27 25 19 19 24 27 28 26 24 22 22 20 17 12 9 9 11 13 14 16 16 14 15 17 16 15 12 9 9 13 15 17 19 22 21 22 24 24 29 34 30 26 27 25 25 30 33 33 32 32 31 29 27 26 25 23 22 20 18 16 15 14
4 8 11 11 11 14 19 23 25 25 26 26 25 22 18 17 22 25 17 9 14 24 25 25 26 22 19 23 27 28 27 23 23 26 26 21 18 16 12 10 14 16 17 18 17 16 18 18 17 17 15 12 11 13 16 17 19 21 21 22 24 24 30 34 29 26 27 26 27 32 33 33 33 31 30 29 27 25 24 23 22 20 17 16 14 14
6 7 7 7 9 12 17 22 23 22 24 24 22 21 22 25 26 24 17 14 18 22 23 23 19 15 18 23 25 25 25 24 27 30 24 18 18 19 15 13 16 19 20 18 15 15 17 18 17 18 18 16 12 12 16 18 19 20 22 23 24 26 31 33 31 29 29 28 30 33 33 33 33 31 29 28 27 25 24 22 21 19 17 16 14 13
7 6 5 7 9 11 16 20 20 17 16 14 17 24 28 28 26 24 22 24 24 20 17 15 13 14 18 19 19 22 25 28 29 23 15 15 19 20 15 13 16 19 19 17 15 15 15 14 15 17 17 17 16 19 24 26 23 21 23 25 27 30 33 33 32 31 30 30 32 33 33 33 32 30 29 28 27 26 24 22 20 18 17 15 13 12
9 10 8 7 6 9 15 17 14 11 11 10 15 22 24 23 25 26 26 28 27 22 18 17 16 18 19 18 19 22 26 28 24 14 11 15 18 17 14 15 18 18 18 16 15 16 15 12 12 14 16 20 23 25 27 28 26 23 24 27 30 32 34 33 33 32 32 32 33 34 33 33 33 31 28 27 26 25 23 21 20 18 16 14 13 11
10 10 8 7 5 7 9 10 10 10 11 12 13 13 16 22 27 28 28 29 28 26 26 25 25 25 24 23 22 24 27 27 19 12 15 20 19 15 14 17 20 19 17 17 16 15 14 12 11 10 13 18 21 23 24 26 27 26 27 31 34 35 35 36 35 34 34 34 34 34 34 33 33 30 28 27 26 24 23 21 19 17 16 14 12 11
13 10 7 6 7 6 5 8 10 7 2 4 7 10 14 18 21 22 24 26 28 29 27 26 27 27 26 26 25 26 28 24 15 12 18 22 21 17 14 16 18 19 18 16 16 15 13 11 10 10 12 15 20 24 26 27 29 30 30 32 35 36 36 37 36 35 36 36 35 35 35 34 33 30 28 27 26 24 22 21 19 17 15 13 11 10
17 12 7 7 9 8 8 10 12 9 3 5 8 12 15 15 16 18 20 20 23 24 23 23 25 26 27 29 28 28 25 17 12 13 19 23 23 19 16 16 16 18 19 17 15 14 10 8 9 11 14 19 24 27 28 29 31 32 31 31 33 34 35 37 37 36 37 37 35 35 35 34 33 31 28 27 26 24 23 21 19 17 15 13 12 11
19 15 12 11 9 9 10 10 8 10 10 10 13 16 17 18 20 22 21 15 11 13 17 21 24 26 28 28 27 25 19 11 9 13 18 24 23 17 13 14 15 16 17 16 13 9 6 8 10 13 18 22 24 28 30 32 34 34 32 31 33 34 35 36 36 36 37 36 36 36 34 33 32 31 29 27 25 24 22 20 17 16 14 13 12 12
23 18 15 12 8 9 12 9 8 11 9 10 16 18 17 19 20 20 20 10 6 10 18 22 24 26 25 24 23 20 12 7 9 12 17 23 21 12 9 11 12 13 13 12 11 8 7 10 10 13 18 19 20 27 32 34 38 37 34 34 36 36 36 36 37 38 37 35 34 33 32 31 30 29 28 26 24 23 21 18 16 15 13 12 11 10
20 13 12 12 10 11 14 9 6 8 5 8 15 17 18 20 20 18 14 5 8 16 23 23 25 26 24 22 19 14 10 10 12 14 18 20 14 6 7 10 10 11 10 9 8 6 8 12 12 12 14 17 23 30 34 37 38 35 34 37 37 37 38 39 38 37 35 33 32 31 30 29 28 27 26 25 23 21 19 18 16 14 13 12 10 8
12 9 10 13 12 14 16 11 6 7 6 9 14 17 18 18 16 15 13 7 12 20 21 21 24 23 21 21 16 12 13 15 15 16 18 18 13 9 10 9 6 5 5 6 7 7 9 12 14 15 17 22 28 32 37 38 32 30 36 37 31 34 40 40 38 37 35 33 32 31 29 28 27 26 25 23 22 21 19 17 15 14 13 11 10 8
7 6 8 10 11 11 11 9 8 8 7 11 16 18 16 13 10 12 14 14 18 21 19 19 22 20 18 19 16 14 16 17 17 17 16 16 15 14 11 6 5 4 3 2 6 9 8 8 10 13 16 21 27 33 40 38 29 31 38 31 25 34 42 41 40 40 38 36 34 32 31 30 28 27 25 24 23 22 20 18 15 14 13 11 10 9
8 6 7 8 8 9 9 8 8 6 8 16 19 16 12 12 10 12 15 16 16 18 17 16 16 16 17 17 17 17 17 17 17 16 15 14 14 14 11 7 8 8 7 5 6 10 11 7 7 8 12 19 26 35 42 36 27 31 33 24 27 40 44 42 43 43 40 38 36 33 32 31 29 28 27 25 24 22 20 18 16 14 14 13 11 8
8 7 6 4 5 7 8 6 4 5 4 13 17 13 10 11 10 11 15 14 13 13 12 11 11 13 14 14 15 16 16 16 16 15 14 13 11 11 10 7 6 8 9 8 9 11 12 9 7 8 12 20 27 35 41 38 29 27 25 24 34 44 43 43 45 43 40 39 36 33 32 31 29 28 26 25 24 22 19 18 17 15 14 13 11 8
4 3 5 5 4 5 6 4 4 8 7 4 7 7 7 10 10 10 12 13 11 10 9 9 10 11 12 13 14 15 14 15 15 13 12 11 9 9 10 7 7 9 9 9 8 10 12 10 9 9 11 18 27 34 39 39 32 25 24 31 42 47 45 45 45 41 40 39 36 35 34 30 28 27 26 26 25 23 21 20 18 16 14 13 11 8
9 10 7 6 6 7 8 6 4 6 9 9 9 9 10 12 11 9 9 10 10 11 11 10 11 12 12 12 13 14 14 16 16 15 13 12 11 11 10 8 7 7 7 7 7 9 11 9 9 10 10 14 24 32 37 39 35 30 32 39 46 48 48 48 45 42 41 39 37 36 34 31 28 26 25 26 25 23 22 21 19 15 13 12 11 9
8 9 7 6 7 7 5 5 9 11 13 15 15 14 13 10 8 6 6 6 7 9 10 11 12 12 12 12 12 14 15 16 16 16 14 12 12 11 11 10 8 7 8 9 9 10 10 8 9 12 11 12 21 31 36 36 35 35 39 43 46 48 49 49 47 43 41 39 37 35 33 32 30 26 25 25 24 22 20 20 19 15 12 12 11 9
7 9 9 8 10 10 9 12 16 18 19 18 15 11 9 7 6 6 6 6 8 10 11 11 12 12 12 12 12 13 15 16 17 17 16 14 12 11 12 13 12 9 8 8 9 11 10 9 12 15 13 13 21 31 36 34 33 37 42 44 46 49 49 48 46 44 41 39 38 35 33 33 31 29 27 26 25 23 21 21 19 14 12 13 12 10
11 14 13 13 14 15 16 18 18 16 18 18 13 6 4 6 9 11 11 11 12 13 13 14 13 12 11 13 14 14 15 16 17 17 16 14 12 12 12 13 12 9 8 7 11 14 13 13 15 15 14 16 24 32 36 34 34 39 44 46 48 51 49 45 44 43 40 37 36 34 32 31 31 30 29 27 25 22 20 21 19 15 13 14 12 8
10 13 13 12 12 13 14 14 14 13 13 12 11 9 7 8 11 14 15 16 17 17 17 18 18 17 17 17 17 16 16 17 16 16 15 13 12 13 14 12 11 9 8 9 12 14 14 14 15 15 14 17 24 33 36 34 35 40 45 48 51 53 51 46 43 40 38 36 34 33 32 31 29 28 28 28 26 21 19 19 17 14 13 12 10 7
10 12 12 11 11 13 15 15 13 12 13 13 15 18 17 15 16 17 17 18 20 20 20 20 20 21 21 20 18 17 17 17 17 16 14 13 13 14 14 13 11 11 10 9 10 12 14 14 14 13 13 18 26 32 33 35 39 43 47 50 53 54 53 51 44 37 33 35 35 34 34 33 30 28 28 28 27 24 21 18 14 11 10 9 8 7
Wind_Direction
191 225 232 240 242 241 240 233 235 251 268 283 284 280 275 274 272 272 273 146 183 235 245 246 253 260 264 264 264 269 271 270 270 264 259 260 260 255 250 246 232 220 206 188 192 189 185 185 182 182 185 185 185 187 186 184 184 183 183 184 183 184 184 182 182 184 186 185 186 186 185 189 188 188 192 198 206 205 205 224 241 251 259 267 281 290
189 224 236 241 250 259 266 263 255 259 269 272 269 273 273 267 267 273 263 140 168 226 260 263 265 265 264 265 265 265 265 264 263 263 263 264 267 263 254 249 237 214 180 173 185 182 178 177 176 179 182 183 185 187 187 187 184 183 183 184 184 184 185 186 185 186 189 189 187 185 186 185 181 185 189 188 199 208 215 231 246 254 262 271 279 284
213 231 244 248 254 266 272 276 267 263 264 265 261 261 265 263 270 274 178 135 171 215 270 279 277 274 270 266 262 257 257 255 250 255 264 269 271 267 260 255 232 190 171 180 184 179 175 173 175 179 184 187 188 187 188 188 184 183 184 185 185 185 186 187 188 189 188 187 186 182 181 178 173 184 191 188 193 209 224 239 249 254 260 268 274 280
222 235 248 251 234 239 253 241 241 257 252 244 244 247 255 256 267 268 184 146 202 218 274 293 284 275 268 258 250 247 248 250 250 252 260 264 264 263 266 267 221 186 184 189 186 182 177 175 179 183 186 187 187 188 189 188 186 186 187 187 185 185 186 186 189 189 183 185 187 185 184 182 177 187 200 205 212 226 237 243 248 254 257 261 267 273
239 241 201 173 182 229 251 232 217 240 246 231 227 235 249 253 257 264 298 341 256 233 254 295 283 268 258 246 239 236 232 244 252 251 255 256 255 259 264 256 214 190 192 194 187 183 181 181 185 188 187 186 187 190 190 188 188 188 189 187 184 185 186 187 190 186 183 190 193 191 192 193 191 196 207 213 219 228 234 236 240 247 250 255 264 269
248 236 126 193 212 208 235 243 226 225 250 244 225 230 244 258 264 268 309 353 297 264 161 324 298 272 232 233 234 197 178 217 229 237 247 246 244 254 256 229 199 195 204 201 187 181 183 185 186 188 188 188 190 193 191 189 189 188 188 186 184 186 186 187 192 192 193 196 195 192 191 191 193 198 204 206 204 206 215 221 223 234 246 256 265 269
246 195 129 228 231 213 230 252 238 218 244 252 237 244 247 257 266 268 287 307 281 281 193 64 308 285 230 217 229 204 191 195 189 229 246 240 229 235 245 211 182 195 202 194 185 179 181 183 183 187 190 191 192 192 189 187 190 189 187 186 185 186 186 189 197 199 199 199 196 196 195 191 192 195 198 198 192 187 188 194 207 231 252 261 267 270
203 181 179 216 224 227 230 251 237 211 229 248 15 354 259 253 261 259 269 255 260 292 280 175 247 278 272 221 217 221 222 209 208 241 253 251 232 222 229 200 174 192 191 180 182 181 183 183 184 188 191 193 192 188 186 186 189 189 187 186 186 187 188 194 200 201 202 201 198 196 194 192 193 191 185 179 181 187 191 199 217 237 252 260 266 269
158 187 194 187 199 226 223 258 216 195 218 249 61 39 62 14 264 241 247 256 272 292 273 201 185 265 281 212 193 209 215 217 223 237 249 252 246 234 227 196 174 189 184 175 180 181 183 183 186 189 189 191 190 186 186 187 187 188 187 187 187 189 190 197 202 202 203 202 200 198 193 190 191 188 181 175 182 197 206 215 226 237 246 254 263 268
68 173 211 186 200 224 195 48 24 206 214 152 115 90 78 89 102 172 241 268 283 273 259 212 171 235 284 203 167 195 202 209 222 232 241 244 246 239 211 177 171 181 177 175 180 181 182 183 185 187 187 187 187 186 186 185 185 187 187 187 190 191 192 199 202 203 203 202 201 200 194 192 191 186 186 185 187 196 205 215 224 232 236 239 246 254
123 88 5 218 217 210 107 73 23 5 123 135 145 121 114 187 165 204 237 260 278 264 244 203 181 208 273 191 145 179 194 196 203 219 238 243 242 226 180 165 173 172 172 173 175 174 174 178 180 182 186 185 183 183 183 184 186 187 188 189 191 192 194 200 203 203 204 204 203 202 199 198 193 184 185 187 189 194 197 205 216 225 225 220 225 237
201 178 201 219 188 124 111 101 53 50 133 164 172 187 216 227 197 213 215 164 249 263 222 184 186 199 236 217 153 183 193 190 185 207 249 259 252 227 170 163 173 167 168 169 167 168 168 172 177 181 186 184 181 181 182 186 187 188 191 191 191 193 194 199 203 203 203 204 205 204 204 204 198 191 191 190 189 193 196 201 209 215 219 222 231 242
216 208 192 146 92 184 171 152 103 110 186 202 190 194 231 245 229 229 219 189 235 255 139 155 189 209 236 245 228 225 198 188 190 217 260 265 255 241 176 156 165 161 163 166 165 166 170 175 178 182 185 183 182 183 185 187 187 190 193 192 193 194 192 196 201 202 202 203 205 205 205 206 203 199 198 195 191 194 198 203 210 213 216 221 228 239
224 230 174 167 209 193 187 195 202 186 185 194 190 186 206 232 247 246 238 236 247 249 140 129 182 235 261 252 227 229 215 200 209 226 242 246 243 246 166 137 150 164 166 167 170 170 176 182 182 183 186 185 186 186 187 189 188 190 193 193 195 195 191 195 200 200 200 202 204 206 206 205 204 201 200 198 193 197 202 208 215 220 222 226 233 240
243 272 178 173 172 169 188 211 213 139 174 195 195 197 214 228 240 246 251 253 267 289 213 146 180 237 272 150 198 219 216 202 219 230 223 232 229 192 92 124 150 179 182 172 174 179 182 184 182 182 186 189 189 187 187 190 190 191 193 194 195 195 192 195 198 198 197 199 202 205 204 203 204 204 205 203 201 205 211 214 218 224 228 232 238 244
240 265 166 140 113 161 184 216 178 117 184 196 186 208 232 239 229 247 276 274 315 316 270 191 220 247 257 232 160 200 202 187 209 227 215 225 219 168 152 191 181 187 195 185 184 189 185 184 185 183 187 191 189 187 189 190 191 192 193 194 194 194 192 193 197 198 195 196 200 202 202 203 204 205 205 205 207 211 214 216 219 224 230 234 240 246
232 267 131 115 346 157 170 273 175 185 228 167 177 207 227 323 240 248 273 291 91 283 266 221 243 258 266 251 170 164 181 182 204 221 214 223 219 199 208 215 202 197 198 194 194 194 185 183 189 187 188 191 187 188 192 193 195 195 194 194 192 192 192 193 196 197 194 195 198 199 201 202 203 204 205 206 208 210 213 216 219 223 229 235 241 249
230 262 167 170 226 141 6 328 248 305 325 142 186 217 91 37 311 249 262 268 244 263 270 260 261 262 267 259 168 164 182 192 208 217 216 223 219 214 222 223 218 206 196 198 199 201 194 187 193 192 191 193 193 195 198 197 198 199 199 197 191 189 192 195 196 197 196 196 196 197 199 200 202 204 205 206 208 209 211 214 217 222 228 234 241 249
211 252 244 178 281 101 94 266 220 209 213 172 275 293 75 223 211 204 227 247 250 259 270 272 274 267 251 250 175 175 191 202 211 213 213 219 215 216 226 229 228 212 198 206 204 200 200 195 197 196 192 194 198 200 200 199 200 199 201 201 194 190 195 197 196 196 197 196 196 196 197 199 202 204 205 205 206 208 210 212 216 220 225 230 238 247
188 229 245 43 343 115 141 219 208 176 169 242 297 273 224 246 234 211 211 228 241 250 265 278 282 272 244 229 177 175 191 204 206 203 207 215 215 215 222 229 231 220 210 213 213 205 200 198 199 196 193 193 195 196 195 194 197 196 197 199 194 190 195 198 196 196 196 196 197 196 196 198 200 202 203 204 206 207 209 212 214 218 222 228 236 243
140 230 238 81 338 236 205 199 194 191 182 184 225 220 199 197 266 288 249 234 237 246 255 268 275 273 264 165 164 163 185 200 195 199 205 207 215 217 220 227 230 229 222 218 220 216 205 198 193 191 193 192 189 191 191 189 191 192 191 193 191 187 191 196 197 197 196 196 197 196 194 196 198 200 202 204 206 207 208 210 212 216 221 226 232 238
179 212 225 211 211 226 221 196 196 206 193 186 199 201 199 191 182 229 236 224 212 241 246 246 265 272 255 120 133 123 151 193 193 209 210 201 214 218 219 226 227 228 230 225 222 221 213 199 181 180 186 186 185 187 188 187 188 190 190 190 189 187 191 194 195 196 195 194 195 195 193 194 196 198 200 202 203 205 206 208 211 215 219 224 230 234
174 164 224 232 230 233 230 177 201 256 240 251 231 207 207 194 186 211 221 209 185 222 245 245 258 268 245 111 98 84 117 189 209 226 242 238 222 217 221 224 225 226 230 229 225 221 214 197 170 171 180 185 189 188 187 188 188 190 190 187 187 189 191 192 193 194 194 193 192 193 192 193 194 196 198 199 201 202 204 206 210 214 218 222 226 230
82 95 226 244 260 270 268 89 49 12 200 257 253 225 221 213 210 221 222 217 186 196 230 235 242 260 264 97 72 293 256 239 229 230 250 254 228 212 223 223 222 229 230 229 229 223 209 185 162 171 180 187 193 190 188 190 189 190 189 187 189 191 187 188 192 193 191 191 190 189 190 191 192 194 195 196 198 200 202 205 208 213 217 220 223 226
187 192 215 237 257 263 259 240 226 204 198 225 234 221 222 223 221 232 247 239 232 228 236 243 246 255 260 127 253 271 256 228 228 232 243 251 234 212 221 223 222 228 229 228 229 222 203 182 173 183 188 192 194 191 191 191 189 190 190 188 189 189 184 186 191 191 189 188 186 184 187 189 190 192 193 194 196 198 200 203 206 211 215 217 220 223
226 210 198 222 236 230 234 240 233 166 177 214 233 224 219 215 210 220 230 216 234 240 239 243 251 257 269 283 282 281 272 257 257 256 247 242 240 226 215 220 222 220 222 222 223 220 207 194 189 190 190 194 196 194 192 191 190 190 190 190 189 185 181 185 189 188 186 185 182 182 185 187 188 191 191 192 194 196 200 204 205 208 213 216 218 222
201 223 214 229 241 237 242 252 264 268 207 192 216 220 215 212 210 216 228 225 234 242 239 242 250 258 269 275 279 281 276 271 271 271 264 235 228 233 222 220 221 218 220 220 222 222 210 197 195 197 197 198 195 193 191 190 190 189 189 190 188 183 181 184 187 186 183 180 179 180 182 185 188 189 189 191 193 194 199 203 204 206 211 216 219 224
152 234 229 236 243 243 249 256 262 264 255 236 233 225 214 214 213 211 222 230 234 243 248 244 249 254 258 262 270 274 273 272 271 272 274 253 217 221 224 226 229 229 229 228 228 225 216 210 207 203 202 197 189 188 190 190 189 188 189 189 184 182 184 186 184 181 177 176 177 178 179 183 187 187 187 190 191 193 197 201 204 207 211 217 222 227
198 240 237 243 247 245 250 256 259 263 263 258 257 248 227 214 208 212 225 230 229 239 249 247 249 254 255 257 263 266 268 271 271 273 277 270 248 232 222 222 232 235 233 233 232 225 219 220 218 210 202 189 184 186 187 187 188 188 188 187 182 180 185 186 180 174 174 174 175 178 179 182 184 184 186 188 189 192 196 199 204 208 213 217 221 226
198 236 234 243 253 253 255 258 258 261 264 262 258 254 243 224 216 222 229 226 225 237 245 249 253 258 261 259 260 263 265 270 275 277 276 274 272 264 238 221 234 242 241 241 240 232 226 226 225 222 212 189 180 186 187 186 187 187 186 184 179 177 183 186 178 172 174 173 174 179 180 180 181 182 184 185 188 192 196 199 204 208 212 216 220 225
206 223 228 239 256 253 248 251 251 252 256 257 256 257 261 261 250 243 238 216 224 239 243 244 250 257 260 258 259 261 265 270 274 273 272 275 280 277 265 251 254 257 255 250 246 240 236 234 232 231 224 210 192 185 186 185 184 185 183 180 177 176 182 184 177 172 175 174 175 179 179 178 180 181 183 185 188 192 195 200 204 207 211 215 218 224
206 226 226 229 246 243 238 241 243 245 251 255 259 261 257 255 255 253 246 230 229 240 246 247 249 250 251 256 260 263 266 267 266 265 270 279 278 274 270 262 258 260 259 256 252 246 242 238 234 233 230 221 200 179 184 183 177 180 182 178 176 177 181 182 179 177 177 176 176 177 177 178 179 180 182 185 189 193 195 199 203 206 210 212 216 222
196 219 215 216 236 242 236 239 242 243 250 249 243 243 241 242 248 252 252 247 241 240 244 245 241 240 245 253 259 262 263 261 259 261 269 273 270 271 270 258 253 257 261 262 259 255 251 242 233 230 229 224 208 196 196 190 181 180 180 177 176 177 179 181 180 179 178 177 177 177 177 179 178 179 182 185 190 193 196 199 202 205 208 210 214 219
200 214 221 217 233 243 237 240 244 238 234 230 226 230 234 239 244 246 247 248 246 245 247 251 253 255 256 253 251 254 257 258 261 267 266 263 267 272 271 263 259 260 264 265 262 260 260 253 238 227 225 225 215 205 200 194 188 184 179 177 177 177 178 178 178 178 177 176 177 177 178 179 179 180 182 186 190 192 195 198 200 203 206 208 212 216
211 215 225 222 232 246 236 237 242 231 225 233 233 226 229 236 240 243 247 248 249 250 251 254 257 257 256 256 256 258 258 261 270 280 270 266 267 266 264 265 265 266 267 266 266 263 260 256 247 228 220 219 209 195 187 186 186 182 177 177 178 177 178 178 177 177 177 176 177 178 179 179 179 179 182 186 189 191 193 195 197 200 203 205 210 215
219 220 221 220 230 239 222 216 229 238 210 206 217 217 226 235 240 247 253 249 245 247 248 250 253 255 257 258 257 258 261 268 279 276 268 268 267 261 255 256 262 267 266 265 266 265 263 255 237 217 205 197 188 182 181 182 182 177 175 177 178 177 178 177 176 177 177 176 177 179 179 179 178 179 182 185 187 188 191 193 195 197 199 201 206 215
219 220 216 222 222 222 229 225 230 251 250 162 183 205 216 221 220 231 246 243 232 236 243 249 253 254 255 256 255 258 264 273 280 270 264 265 262 258 253 250 256 262 264 265 266 264 259 235 210 199 188 179 177 180 181 180 178 174 171 173 175 175 177 177 177 177 177 177 177 178 179 180 179 180 182 184 185 187 189 191 193 194 196 197 202 212
214 216 215 224 217 211 233 237 227 241 236 202 202 209 211 218 220 229 246 244 209 215 236 243 247 248 250 253 257 261 264 262 258 261 263 262 261 257 249 246 247 251 257 262 261 252 224 195 191 187 179 174 177 182 181 178 175 170 167 170 173 174 176 178 179 179 178 177 178 178 179 180 180 181 182 183 185 186 187 188 190 193 194 197 203 212
218 218 217 228 226 212 231 238 223 235 234 206 211 214 214 223 228 236 250 246 167 205 234 239 244 247 249 253 255 257 259 245 242 252 257 260 265 265 250 245 242 244 251 254 251 239 200 181 177 177 175 172 177 181 180 177 173 169 168 171 173 174 177 180 181 180 178 176 176 177 178 179 180 181 181 182 184 184 185 186 188 190 192 198 206 213
218 219 219 228 230 221 232 242 231 238 232 192 206 215 220 226 229 237 251 227 173 215 230 236 243 248 251 255 256 255 251 243 245 251 253 259 269 269 250 249 242 239 243 242 238 224 186 173 166 167 176 182 183 181 178 175 171 170 172 173 173 176 180 181 180 177 174 173 173 175 176 177 178 180 181 182 181 181 183 185 186 188 191 198 205 209
215 212 214 223 225 220 226 237 237 232 210 191 208 217 221 227 229 234 243 230 214 226 230 234 243 249 252 256 258 255 249 246 249 254 259 267 274 266 254 249 238 238 247 239 220 190 172 178 181 186 192 190 183 179 176 173 172 174 175 171 173 181 181 178 174 172 170 170 171 172 173 175 178 179 180 181 180 180 182 181 183 187 189 194 199 206
211 209 213 222 228 228 228 236 252 245 192 192 221 226 220 226 233 232 236 238 236 239 242 243 248 253 256 257 258 256 256 258 258 258 261 264 265 264 258 229 203 228 244 226 205 187 177 186 190 193 196 188 181 178 176 174 174 176 173 171 178 181 176 172 170 169 169 169 169 171 172 174 177 178 179 180 180 179 179 178 180 185 186 189 197 208
193 207 221 207 206 228 233 226 243 251 180 192 220 229 215 218 232 236 240 242 241 246 251 252 255 259 258 257 257 255 257 260 261 260 260 258 257 262 256 215 201 219 213 203 211 199 189 188 188 190 190 184 181 179 177 176 176 176 174 175 178 175 170 169 169 168 167 167 167 169 171 173 175 177 177 178 178 176 175 177 179 181 183 186 191 203
200 209 238 229 197 220 229 216 247 293 225 202 217 228 226 235 251 262 264 263 259 261 266 268 269 270 271 275 277 274 269 267 265 265 264 260 256 260 260 233 207 216 214 213 215 199 190 190 187 181 182 182 181 181 181 180 177 174 176 175 172 169 167 167 167 164 163 164 163 165 168 170 173 175 174 175 175 172 171 175 178 179 182 182 182 195
265 289 296 286 264 254 266 279 311 331 333 281 249 265 294 315 325 321 313 310 305 309 321 323 318 322 327 328 323 316 308 302 301 300 294 289 283 280 281 267 230 222 218 215 207 193 193 196 185 173 177 182 183 184 185 184 178 174 175 172 169 168 166 165 163 161 160 160 161 163 165 167 170 173 173 174 175 174 173 174 175 178 181 179 180 195
305 308 296 278 287 295 287 283 320 347 338 325 316 319 327 329 329 334 340 332 323 331 337 329 327 335 337 335 333 327 321 320 320 316 313 312 306 299 296 281 252 232 218 212 201 188 190 190 182 177 180 184 187 188 188 188 184 178 174 170 169 168 166 163 161 159 158 158 160 163 164 163 165 169 172 174 175 175 174 173 173 176 180 178 179 191
290 300 305 300 299 295 290 326 348 337 320 313 312 312 310 307 309 322 326 314 315 322 320 316 319 321 318 319 320 314 310 310 307 304 303 302 298 298 300 289 269 241 221 216 200 182 179 181 186 190 188 185 189 189 189 190 189 181 172 169 169 169 166 163 160 157 157 158 158 160 162 163 164 166 169 172 173 172 173 175 176 177 177 176 178 187
304 323 331 316 300 292 290 303 308 302 296 294 293 296 308 313 316 317 307 306 313 309 304 307 308 306 305 306 303 299 299 296 292 291 291 290 289 290 289 284 273 249 226 211 183 172 180 193 198 198 196 191 188 187 186 187 185 179 173 171 171 168 165 163 160 158 157 158 158 159 162 164 166 167 167 170 172 171 173 177 178 178 179 178 178 182
292 299 297 292 292 290 286 290 294 291 288 286 284 295 338 333 323 319 313 309 308 303 300 299 294 291 293 294 293 293 290 285 282 282 281 282 283 277 271 272 267 247 223 199 182 182 193 203 201 199 201 196 187 183 182 182 181 178 174 171 171 169 164 161 160 157 156 157 158 159 161 163 165 166 167 168 169 170 175 179 177 175 176 176 173 176
268 272 276 279 279 276 278 290 301 301 295 298 308 318 317 307 305 306 305 304 302 300 300 298 296 295 292 288 287 288 284 280 279 276 273 273 274 272 270 269 263 247 226 203 193 195 203 209 206 203 203 196 185 180 180 179 177 176 174 172 172 170 165 160 157 155 156 157 158 158 159 161 163 165 167 167 166 168 174 177 174 171 171 171 172 180
268 272 279 282 279 281 288 299 309 306 299 300 306 305 304 305 304 300 299 299 297 296 296 295 294 293 289 285 282 279 277 278 277 274 274 273 270 271 272 270 264 254 235 208 194 200 209 210 206 202 200 192 183 180 179 178 175 174 174 173 173 171 167 161 155 153 156 158 158 159 161 162 162 164 166 168 168 169 168 167 168 173 175 172 173 176